User: anonymous   Login
Location: Unspecified
(0.0000°N, 0.0000°E)
Time: 01:27:46
(UTC+00:00)
Language:

AAUSAT CUBESAT 2 - Orbit

View from above orbital plane
View from above orbital plane
View from above satellite
View from above satellite

Ground track
Ground track

The orbit data is extracted from the following two-line orbital elements,

1 32788U 08021F   18225.60575054 +.00000548 +00000-0 +55883-4 0  9999
2 32788 097.5190 249.7124 0012738 149.7460 210.4499 14.94412127558655
Epoch (UTC): 13 August 2018 14:32:16
Eccentricity: 0.0012738
inclination: 97.5190°
perigee height: 575 km
apogee height: 593 km
right ascension of ascending node: 249.7124°
argument of perigee: 149.7460°
revolutions per day: 14.94412127
mean anomaly at epoch: 210.4499°
orbit number at epoch: 55865

The dashed part of the orbit path shows where the satellite is in the earth's shadow,  

DLR